Barking Sands, HI

8:54 AM HST on June 26, 2017 (GMT -1000)
Barking Sands PMRF

Weather History for PHBK - March, 2014

Change the Weather History Date:

Saturday, March 1, 2014

  Actual Average Record
Temperature  
Mean Temperature 74 °F -  
Max Temperature 77 °F 81 °F 87 °F (1951)
Min Temperature 70 °F 61 °F 56 °F (1970)
Cooling Degree Days 9    
Growing Degree Days 24 (Base 50)    
Moisture  
Dew Point 63 °F    
Average Humidity 70    
Maximum Humidity 90    
Minimum Humidity 58    
Precipitation  
Precipitation 0.02 in - - ()
Sea Level Pressure  
Sea Level Pressure 29.92 in    
Wind  
Wind Speed 6 mph (North)    
Max Wind Speed 18 mph    
Max Gust Speed -    
Visibility 8 miles    
Events Rain    
Averages and records for this station are not official NWS values.
T = Trace of Precipitation, MM = Missing Value Source: NWS Daily Summary

Daily Weather History Graph

Daily Weather History Graph

Search for Another Location

Airport or City:

Trip Planner

Search our weather history database for the weather conditions in past years. The results will help you decide how hot, cold, wet, or windy it might be!

Date:

Astronomy

Mar. 01, 2014 Rise Set
Actual Time 6:59 AM HST 6:43 PM HST
Civil Twilight 6:37 AM HST 7:05 PM HST
Nautical Twilight 6:11 AM HST 7:31 PM HST
Astronomical Twilight 5:45 AM HST 7:57 PM HST
Moon 7:09 AM HST (3/1) 7:31 PM HST (3/1)
Length of Visible Light 12h 28m
Length of Day
11h 43m
New Moon, 0% of the Moon is Illuminated
Mar 1
New Moon
Mar 8
First Quarter
Mar 16
Full
Mar 23
Last Quarter
Mar 30
New

Hourly Weather History & Observations

Time (HST) Temp. Dew Point Humidity Pressure Visibility Wind Dir Wind Speed Gust Speed Precip Events Conditions
12:56 AM - - N/A% 29.92 in 10.0 mi Calm Calm - 0.01 in   Mostly Cloudy
1:56 AM - - N/A% 29.90 in 10.0 mi NNE 3.5 mph - N/A   Clear
2:56 AM - - N/A% 29.88 in 10.0 mi NNW 3.5 mph - N/A   Clear
3:56 AM - - N/A% 29.87 in 10.0 mi ESE 3.5 mph - N/A   Clear
4:56 AM - - N/A% 29.88 in 10.0 mi East 4.6 mph - N/A   Clear
5:56 AM - - N/A% 29.90 in 10.0 mi ESE 4.6 mph - N/A   Clear
6:56 AM - - N/A% 29.91 in 10.0 mi SE 5.8 mph - N/A   Partly Cloudy
7:56 AM - - N/A% 29.93 in 10.0 mi SE 5.8 mph - N/A   Scattered Clouds
8:56 AM - - N/A% 29.94 in 10.0 mi South 3.5 mph - N/A   Partly Cloudy
9:56 AM 75.9 °F 64.0 °F 67% 29.95 in 10.0 mi WSW 3.5 mph - N/A   Mostly Cloudy
10:56 AM 72.0 °F 66.0 °F 81% 29.98 in 10.0 mi NW 18.4 mph - N/A   Overcast
11:20 AM - - N/A% 29.97 in 10.0 mi NW 16.1 mph - N/A   Overcast
11:48 AM - - N/A% 29.96 in 10.0 mi NNW 15.0 mph - N/A   Overcast
11:56 AM - - N/A% 29.97 in 10.0 mi North 15.0 mph - N/A   Overcast
12:41 PM - - N/A% 29.94 in 10.0 mi North 13.8 mph - N/A   Overcast
12:56 PM - - N/A% 29.95 in 10.0 mi NNE 10.4 mph - N/A   Overcast
1:33 PM 75.2 °F 62.6 °F 65% 29.92 in 10.0 mi NNW 13.8 mph - N/A   Overcast
1:56 PM 73.9 °F 62.1 °F 66% 29.92 in 10.0 mi North 16.1 mph - N/A   Overcast
2:56 PM 77.0 °F 61.0 °F 58% 29.89 in 10.0 mi North 11.5 mph - 0.00 in   Partly Cloudy
3:56 PM 75.0 °F 62.1 °F 64% 29.88 in 10.0 mi North 6.9 mph - N/A   Scattered Clouds
4:40 PM 75.2 °F 62.6 °F 65% 29.88 in 6.2 mi North 6.9 mph - N/A   Mostly Cloudy
4:56 PM 75.0 °F 62.1 °F 64% 29.89 in 10.0 mi North 5.8 mph - N/A   Overcast
5:20 PM 73.4 °F 62.6 °F 69% 29.88 in 4.0 mi NNW 6.9 mph - N/A   Haze
5:49 PM 73.4 °F 62.6 °F 69% 29.88 in 4.0 mi NW 5.8 mph - 0.00 in Rain Light Rain
5:56 PM 73.9 °F 63.0 °F 68% 29.89 in 3.0 mi NW 5.8 mph - 0.00 in   Haze
6:11 PM 73.4 °F 62.6 °F 69% 29.89 in 4.0 mi NW 4.6 mph - N/A   Haze
6:27 PM 73.4 °F 62.6 °F 69% 29.89 in - NW 5.8 mph - N/A   Haze
6:35 PM 73.4 °F 62.6 °F 69% 29.90 in - NW 8.1 mph - N/A   Haze
6:56 PM 73.0 °F 62.1 °F 68% 29.91 in 4.0 mi North 4.6 mph - N/A   Haze
7:56 PM 73.0 °F 64.0 °F 73% 29.92 in 6.0 mi NNW 4.6 mph - N/A   Haze
8:28 PM 73.4 °F 64.4 °F 73% 29.92 in 4.0 mi WNW 6.9 mph - N/A   Haze
8:53 PM 71.6 °F 66.2 °F 83% 29.93 in 2.5 mi Calm Calm - 0.01 in Rain Light Rain
8:56 PM 70.0 °F 66.9 °F 90% 29.94 in 4.0 mi Calm Calm - 0.01 in Rain Light Rain
9:56 PM - - N/A% 29.95 in 7.0 mi North 10.4 mph - 0.00 in   Overcast
10:05 PM - - N/A% 29.94 in 6.2 mi NNE 6.9 mph - N/A   Overcast
10:56 PM - - N/A% 29.95 in 6.0 mi North 6.9 mph - N/A   Haze
11:21 PM - - N/A% 29.94 in 6.0 mi North 8.1 mph - N/A   Haze
11:56 PM - - N/A% 29.95 in 7.0 mi North 6.9 mph - N/A   Overcast